Year,Month,Day,Hour,Minute,Value (Times are PST for temperature in C)
2012,06,25,00,00,10.70
2012,06,25,00,01,10.70
2012,06,25,00,02,10.60
2012,06,25,00,03,10.60
2012,06,25,00,04,10.60
2012,06,25,00,05,10.60
2012,06,25,00,06,10.60
2012,06,25,00,07,10.60
2012,06,25,00,08,10.60
2012,06,25,00,09,10.60
2012,06,25,00,10,10.60
2012,06,25,00,11,10.60
2012,06,25,00,12,10.60
2012,06,25,00,13,10.60
2012,06,25,00,14,10.60
2012,06,25,00,15,10.60
2012,06,25,00,16,10.60
2012,06,25,00,17,10.60
2012,06,25,00,18,10.60
2012,06,25,00,19,10.60
2012,06,25,00,20,10.60
2012,06,25,00,21,10.60
2012,06,25,00,22,10.60
2012,06,25,00,23,10.60
2012,06,25,00,24,10.60
2012,06,25,00,25,10.70
2012,06,25,00,26,10.70
2012,06,25,00,27,10.80
2012,06,25,00,28,10.80
2012,06,25,00,29,10.80
2012,06,25,00,30,10.80
2012,06,25,00,31,10.90
2012,06,25,00,32,10.90
2012,06,25,00,33,10.90
2012,06,25,00,34,10.90
2012,06,25,00,35,10.90
2012,06,25,00,36,10.90
2012,06,25,00,37,10.90
2012,06,25,00,38,10.90
2012,06,25,00,39,10.90
2012,06,25,00,40,10.80
2012,06,25,00,41,10.80
2012,06,25,00,42,10.80
2012,06,25,00,43,10.80
2012,06,25,00,44,10.80
2012,06,25,00,45,10.80
2012,06,25,00,46,10.80
2012,06,25,00,47,10.80
2012,06,25,00,48,10.80
2012,06,25,00,49,10.80
2012,06,25,00,50,10.70
2012,06,25,00,51,10.70
2012,06,25,00,52,10.70
2012,06,25,00,53,10.70
2012,06,25,00,54,10.70
2012,06,25,00,55,10.70
2012,06,25,00,56,10.70
2012,06,25,00,57,10.70
2012,06,25,00,58,10.70
2012,06,25,00,59,10.60
2012,06,25,01,00,10.60
2012,06,25,01,01,10.60
2012,06,25,01,02,10.60
2012,06,25,01,03,10.60
2012,06,25,01,04,10.60
2012,06,25,01,05,10.60
2012,06,25,01,06,10.60
2012,06,25,01,07,10.60
2012,06,25,01,08,10.60
2012,06,25,01,09,10.60
2012,06,25,01,10,10.60
2012,06,25,01,11,10.60
2012,06,25,01,12,10.60
2012,06,25,01,13,10.60
2012,06,25,01,14,10.60
2012,06,25,01,15,10.60
2012,06,25,01,16,10.60
2012,06,25,01,17,10.60
2012,06,25,01,18,10.60
2012,06,25,01,19,10.60
2012,06,25,01,20,10.50
2012,06,25,01,21,10.50
2012,06,25,01,22,10.50
2012,06,25,01,23,10.40
2012,06,25,01,24,10.40
2012,06,25,01,25,10.40
2012,06,25,01,26,10.40
2012,06,25,01,27,10.40
2012,06,25,01,28,10.40
2012,06,25,01,29,10.40
2012,06,25,01,30,10.40
2012,06,25,01,31,10.40
2012,06,25,01,32,10.40
2012,06,25,01,33,10.40
2012,06,25,01,34,10.50
2012,06,25,01,35,10.50
2012,06,25,01,36,10.50
2012,06,25,01,37,10.50
2012,06,25,01,38,10.50
2012,06,25,01,39,10.50
2012,06,25,01,40,10.50
2012,06,25,01,41,10.50
2012,06,25,01,42,10.50
2012,06,25,01,43,10.50
2012,06,25,01,44,10.50
2012,06,25,01,45,10.50
2012,06,25,01,46,10.50
2012,06,25,01,47,10.50
2012,06,25,01,48,10.40
2012,06,25,01,49,10.40
2012,06,25,01,50,10.40
2012,06,25,01,51,10.40
2012,06,25,01,52,10.40
2012,06,25,01,53,10.40
2012,06,25,01,54,10.40
2012,06,25,01,55,10.40
2012,06,25,01,56,10.40
2012,06,25,01,57,10.40
2012,06,25,01,58,10.40
2012,06,25,01,59,10.40
2012,06,25,02,00,10.50
2012,06,25,02,01,10.50
2012,06,25,02,02,10.50
2012,06,25,02,03,10.50
2012,06,25,02,04,10.50
2012,06,25,02,05,10.50
2012,06,25,02,06,10.50
2012,06,25,02,07,10.50
2012,06,25,02,08,10.60
2012,06,25,02,09,10.60
2012,06,25,02,10,10.50
2012,06,25,02,11,10.50
2012,06,25,02,12,10.50
2012,06,25,02,13,10.50
2012,06,25,02,14,10.50
2012,06,25,02,15,10.50
2012,06,25,02,16,10.60
2012,06,25,02,17,10.60
2012,06,25,02,18,10.60
2012,06,25,02,19,10.60
2012,06,25,02,20,10.60
2012,06,25,02,21,10.60
2012,06,25,02,22,10.60
2012,06,25,02,23,10.60
2012,06,25,02,24,10.60
2012,06,25,02,25,10.60
2012,06,25,02,26,10.60
2012,06,25,02,27,10.60
2012,06,25,02,28,10.60
2012,06,25,02,29,10.60
2012,06,25,02,30,10.70
2012,06,25,02,31,10.70
2012,06,25,02,32,10.70
2012,06,25,02,33,10.70
2012,06,25,02,34,10.70
2012,06,25,02,35,10.70
2012,06,25,02,36,10.70
2012,06,25,02,37,10.70
2012,06,25,02,38,10.70
2012,06,25,02,39,10.70
2012,06,25,02,40,10.70
2012,06,25,02,41,10.70
2012,06,25,02,42,10.70
2012,06,25,02,43,10.70
2012,06,25,02,44,10.70
2012,06,25,02,45,10.70
2012,06,25,02,46,10.80
2012,06,25,02,47,10.70
2012,06,25,02,48,10.80
2012,06,25,02,49,10.80
2012,06,25,02,50,10.80
2012,06,25,02,51,10.80
2012,06,25,02,52,10.80
2012,06,25,02,53,10.80
2012,06,25,02,54,10.80
2012,06,25,02,55,10.80
2012,06,25,02,56,10.80
2012,06,25,02,57,10.80
2012,06,25,02,58,10.80
2012,06,25,02,59,10.80
2012,06,25,03,00,10.80
2012,06,25,03,01,10.80
2012,06,25,03,02,10.80
2012,06,25,03,03,10.80
2012,06,25,03,04,10.80
2012,06,25,03,05,10.80
2012,06,25,03,06,10.80
2012,06,25,03,07,10.80
2012,06,25,03,08,10.80
2012,06,25,03,09,10.80
2012,06,25,03,10,10.80
2012,06,25,03,11,10.70
2012,06,25,03,12,10.70
2012,06,25,03,13,10.70
2012,06,25,03,14,10.70
2012,06,25,03,15,10.70
2012,06,25,03,16,10.70
2012,06,25,03,17,10.70
2012,06,25,03,18,10.70
2012,06,25,03,19,10.70
2012,06,25,03,20,10.70
2012,06,25,03,21,10.60
2012,06,25,03,22,10.60
2012,06,25,03,23,10.60
2012,06,25,03,24,10.60
2012,06,25,03,25,10.60
2012,06,25,03,26,10.70
2012,06,25,03,27,10.70
2012,06,25,03,28,10.70
2012,06,25,03,29,10.70
2012,06,25,03,30,10.70
2012,06,25,03,31,10.70
2012,06,25,03,32,10.70
2012,06,25,03,33,10.80
2012,06,25,03,34,10.80
2012,06,25,03,35,10.80
2012,06,25,03,36,10.80
2012,06,25,03,37,10.80
2012,06,25,03,38,10.80
2012,06,25,03,39,10.80
2012,06,25,03,40,10.80
2012,06,25,03,41,10.80
2012,06,25,03,42,10.80
2012,06,25,03,43,10.80
2012,06,25,03,44,10.80
2012,06,25,03,45,10.90
2012,06,25,03,46,10.90
2012,06,25,03,47,10.90
2012,06,25,03,48,10.90
2012,06,25,03,49,10.90
2012,06,25,03,50,10.90
2012,06,25,03,51,10.90
2012,06,25,03,52,10.90
2012,06,25,03,53,11.00
2012,06,25,03,54,11.00
2012,06,25,03,55,11.00
2012,06,25,03,56,11.00
2012,06,25,03,57,11.00
2012,06,25,03,58,11.00
2012,06,25,03,59,11.00
2012,06,25,04,00,11.00
2012,06,25,04,01,11.00
2012,06,25,04,02,11.00
2012,06,25,04,03,11.00
2012,06,25,04,04,10.90
2012,06,25,04,05,10.90
2012,06,25,04,06,10.90
2012,06,25,04,07,10.90
2012,06,25,04,08,10.90
2012,06,25,04,09,10.90
2012,06,25,04,10,10.90
2012,06,25,04,11,10.90
2012,06,25,04,12,10.90
2012,06,25,04,13,10.90
2012,06,25,04,14,10.90
2012,06,25,04,15,10.90
2012,06,25,04,16,10.90
2012,06,25,04,17,10.90
2012,06,25,04,18,10.90
2012,06,25,04,19,10.90
2012,06,25,04,20,10.90
2012,06,25,04,21,10.90
2012,06,25,04,22,10.90
2012,06,25,04,23,10.90
2012,06,25,04,24,10.90
2012,06,25,04,25,10.90
2012,06,25,04,26,10.90
2012,06,25,04,27,10.90
2012,06,25,04,28,10.90
2012,06,25,04,29,10.90
2012,06,25,04,30,11.00
2012,06,25,04,31,11.00
2012,06,25,04,32,11.00
2012,06,25,04,33,11.00
2012,06,25,04,34,11.00
2012,06,25,04,35,11.00
2012,06,25,04,36,11.00
2012,06,25,04,37,11.00
2012,06,25,04,38,11.00
2012,06,25,04,39,11.00
2012,06,25,04,40,11.00
2012,06,25,04,41,11.10
2012,06,25,04,42,11.10
2012,06,25,04,43,11.10
2012,06,25,04,44,11.10
2012,06,25,04,45,11.10
2012,06,25,04,46,11.10
2012,06,25,04,47,11.10
2012,06,25,04,48,11.10
2012,06,25,04,49,11.10
2012,06,25,04,50,11.10
2012,06,25,04,51,11.10
2012,06,25,04,52,11.10
2012,06,25,04,53,11.10
2012,06,25,04,54,11.10
2012,06,25,04,55,11.10
2012,06,25,04,56,11.10
2012,06,25,04,57,11.10
2012,06,25,04,58,11.10
2012,06,25,04,59,11.10
2012,06,25,05,00,11.00
2012,06,25,05,01,11.00
2012,06,25,05,02,11.00
2012,06,25,05,03,11.00
2012,06,25,05,04,10.90
2012,06,25,05,05,10.90
2012,06,25,05,06,10.90
2012,06,25,05,07,10.90
2012,06,25,05,08,10.90
2012,06,25,05,09,10.90
2012,06,25,05,10,10.90
2012,06,25,05,11,10.90
2012,06,25,05,12,10.90
2012,06,25,05,13,10.80
2012,06,25,05,14,10.80
2012,06,25,05,15,10.80
2012,06,25,05,16,10.80
2012,06,25,05,17,10.80
2012,06,25,05,18,10.80
2012,06,25,05,19,10.80
2012,06,25,05,20,10.80
2012,06,25,05,21,10.80
2012,06,25,05,22,10.80
2012,06,25,05,23,10.80
2012,06,25,05,24,10.80
2012,06,25,05,25,10.80
2012,06,25,05,26,10.80
2012,06,25,05,27,10.80
2012,06,25,05,28,10.80
2012,06,25,05,29,10.80
2012,06,25,05,30,10.80
2012,06,25,05,31,10.80
2012,06,25,05,32,10.80
2012,06,25,05,33,10.80
2012,06,25,05,34,10.80
2012,06,25,05,35,10.80
2012,06,25,05,36,10.80
2012,06,25,05,37,10.80
2012,06,25,05,38,10.80
2012,06,25,05,39,10.80
2012,06,25,05,40,10.80
2012,06,25,05,41,10.80
2012,06,25,05,42,10.80
2012,06,25,05,43,10.80
2012,06,25,05,44,10.80
2012,06,25,05,45,10.80
2012,06,25,05,46,10.80
2012,06,25,05,47,10.80
2012,06,25,05,48,10.80
2012,06,25,05,49,10.80
2012,06,25,05,50,10.90
2012,06,25,05,51,10.90
2012,06,25,05,52,10.90
2012,06,25,05,53,10.90
2012,06,25,05,54,10.90
2012,06,25,05,55,10.90
2012,06,25,05,56,10.90
2012,06,25,05,57,10.90
2012,06,25,05,58,11.00
2012,06,25,05,59,11.00
2012,06,25,06,00,11.10
2012,06,25,06,01,11.10
2012,06,25,06,02,11.10
2012,06,25,06,03,11.10
2012,06,25,06,04,11.20
2012,06,25,06,05,11.20
2012,06,25,06,06,11.20
2012,06,25,06,07,11.20
2012,06,25,06,08,11.30
2012,06,25,06,09,11.30
2012,06,25,06,10,11.30
2012,06,25,06,11,11.30
2012,06,25,06,12,11.40
2012,06,25,06,13,11.40
2012,06,25,06,14,11.40
2012,06,25,06,15,11.40
2012,06,25,06,16,11.50
2012,06,25,06,17,11.50
2012,06,25,06,18,11.60
2012,06,25,06,19,11.60
2012,06,25,06,20,11.60
2012,06,25,06,21,11.60
2012,06,25,06,22,11.70
2012,06,25,06,23,11.70
2012,06,25,06,24,11.70
2012,06,25,06,25,11.80
2012,06,25,06,26,11.80
2012,06,25,06,27,11.80
2012,06,25,06,28,11.80
2012,06,25,06,29,11.80
2012,06,25,06,30,11.90
2012,06,25,06,31,11.90
2012,06,25,06,32,11.90
2012,06,25,06,33,11.90
2012,06,25,06,34,11.90
2012,06,25,06,35,12.00
2012,06,25,06,36,12.00
2012,06,25,06,37,12.00
2012,06,25,06,38,12.00
2012,06,25,06,39,12.10
2012,06,25,06,40,12.10
2012,06,25,06,41,12.10
2012,06,25,06,42,12.10
2012,06,25,06,43,12.10
2012,06,25,06,44,12.10
2012,06,25,06,45,12.20
2012,06,25,06,46,12.20
2012,06,25,06,47,12.20
2012,06,25,06,48,12.30
2012,06,25,06,49,12.30
2012,06,25,06,50,12.30
2012,06,25,06,51,12.30
2012,06,25,06,52,12.30
2012,06,25,06,53,12.40
2012,06,25,06,54,12.40
2012,06,25,06,55,12.40
2012,06,25,06,56,12.50
2012,06,25,06,57,12.50
2012,06,25,06,58,12.50
2012,06,25,06,59,12.60
2012,06,25,07,00,12.60
2012,06,25,07,01,12.60
2012,06,25,07,02,12.60
2012,06,25,07,03,12.70
2012,06,25,07,04,12.70
2012,06,25,07,05,12.70
2012,06,25,07,06,12.70
2012,06,25,07,07,12.70
2012,06,25,07,08,12.70
2012,06,25,07,09,12.70
2012,06,25,07,10,12.70
2012,06,25,07,11,12.80
2012,06,25,07,12,12.80
2012,06,25,07,13,12.80
2012,06,25,07,14,12.80
2012,06,25,07,15,12.80
2012,06,25,07,16,12.80
2012,06,25,07,17,12.80
2012,06,25,07,18,12.80
2012,06,25,07,19,12.80
2012,06,25,07,20,12.80
2012,06,25,07,21,12.90
2012,06,25,07,22,12.90
2012,06,25,07,23,12.90
2012,06,25,07,24,13.00
2012,06,25,07,25,13.00
2012,06,25,07,26,13.10
2012,06,25,07,27,13.10
2012,06,25,07,28,13.10
2012,06,25,07,29,13.20
2012,06,25,07,30,13.20
2012,06,25,07,31,13.20
2012,06,25,07,32,13.30
2012,06,25,07,33,13.30
2012,06,25,07,34,13.30
2012,06,25,07,35,13.30
2012,06,25,07,36,13.30
2012,06,25,07,37,13.40
2012,06,25,07,38,13.40
2012,06,25,07,39,13.40
2012,06,25,07,40,13.40
2012,06,25,07,41,13.50
2012,06,25,07,42,13.50
2012,06,25,07,43,13.50
2012,06,25,07,44,13.60
2012,06,25,07,45,13.60
2012,06,25,07,46,13.60
2012,06,25,07,47,13.60
2012,06,25,07,48,13.70
2012,06,25,07,49,13.70
2012,06,25,07,50,13.80
2012,06,25,07,51,13.80
2012,06,25,07,52,13.70
2012,06,25,07,53,13.70
2012,06,25,07,54,13.70
2012,06,25,07,55,13.70
2012,06,25,07,56,13.70
2012,06,25,07,57,13.70
2012,06,25,07,58,13.80
2012,06,25,07,59,13.80
2012,06,25,08,00,13.80
2012,06,25,08,01,13.80
2012,06,25,08,02,13.80
2012,06,25,08,03,13.80
2012,06,25,08,04,13.90
2012,06,25,08,05,14.00
2012,06,25,08,06,14.00
2012,06,25,08,07,14.10
2012,06,25,08,08,14.10
2012,06,25,08,09,14.10
2012,06,25,08,10,14.20
2012,06,25,08,11,14.10
2012,06,25,08,12,14.10
2012,06,25,08,13,14.10
2012,06,25,08,14,14.10
2012,06,25,08,15,14.10
2012,06,25,08,16,14.10
2012,06,25,08,17,14.10
2012,06,25,08,18,14.00
2012,06,25,08,19,14.00
2012,06,25,08,20,13.90
2012,06,25,08,21,13.90
2012,06,25,08,22,13.90
2012,06,25,08,23,13.90
2012,06,25,08,24,14.00
2012,06,25,08,25,14.10
2012,06,25,08,26,14.20
2012,06,25,08,27,14.20
2012,06,25,08,28,14.30
2012,06,25,08,29,14.30
2012,06,25,08,30,14.30
2012,06,25,08,31,14.40
2012,06,25,08,32,14.40
2012,06,25,08,33,14.40
2012,06,25,08,34,14.40
2012,06,25,08,35,14.40
2012,06,25,08,36,14.50
2012,06,25,08,37,14.40
2012,06,25,08,38,14.40
2012,06,25,08,39,14.30
2012,06,25,08,40,14.30
2012,06,25,08,41,14.30
2012,06,25,08,42,14.20
2012,06,25,08,43,14.20
2012,06,25,08,44,14.10
2012,06,25,08,45,14.10
2012,06,25,08,46,14.10
2012,06,25,08,47,14.10
2012,06,25,08,48,14.10
2012,06,25,08,49,14.10
2012,06,25,08,50,14.10
2012,06,25,08,51,14.20
2012,06,25,08,52,14.20
2012,06,25,08,53,14.20
2012,06,25,08,54,14.20
2012,06,25,08,55,14.30
2012,06,25,08,56,14.30
2012,06,25,08,57,14.30
2012,06,25,08,58,14.30
2012,06,25,08,59,14.30
2012,06,25,09,00,14.30
2012,06,25,09,01,14.30
2012,06,25,09,02,14.40
2012,06,25,09,03,14.40
2012,06,25,09,04,14.50
2012,06,25,09,05,14.50
2012,06,25,09,06,14.60
2012,06,25,09,07,14.60
2012,06,25,09,08,14.60
2012,06,25,09,09,14.60
2012,06,25,09,10,14.60
2012,06,25,09,11,14.60
2012,06,25,09,12,14.60
2012,06,25,09,13,14.60
2012,06,25,09,14,14.60
2012,06,25,09,15,14.60
2012,06,25,09,16,14.60
2012,06,25,09,17,14.60
2012,06,25,09,18,14.60
2012,06,25,09,19,14.60
2012,06,25,09,20,14.60
2012,06,25,09,21,14.60
2012,06,25,09,22,14.60
2012,06,25,09,23,14.60
2012,06,25,09,24,14.60
2012,06,25,09,25,14.60
2012,06,25,09,26,14.60
2012,06,25,09,27,14.70
2012,06,25,09,28,14.70
2012,06,25,09,29,14.70
2012,06,25,09,30,14.70
2012,06,25,09,31,14.80
2012,06,25,09,32,14.80
2012,06,25,09,33,14.80
2012,06,25,09,34,14.80
2012,06,25,09,35,14.80
2012,06,25,09,36,14.80
2012,06,25,09,37,14.80
2012,06,25,09,38,14.80
2012,06,25,09,39,14.80
2012,06,25,09,40,14.80
2012,06,25,09,41,14.80
2012,06,25,09,42,14.80
2012,06,25,09,43,14.80
2012,06,25,09,44,14.80
2012,06,25,09,45,14.70
2012,06,25,09,46,14.80
2012,06,25,09,47,14.80
2012,06,25,09,48,14.80
2012,06,25,09,49,14.80
2012,06,25,09,50,14.80
2012,06,25,09,51,14.80
2012,06,25,09,52,14.80
2012,06,25,09,53,14.80
2012,06,25,09,54,14.80
2012,06,25,09,55,14.80
2012,06,25,09,56,14.80
2012,06,25,09,57,14.80
2012,06,25,09,58,14.80
2012,06,25,09,59,14.80
2012,06,25,10,00,14.80
2012,06,25,10,01,14.80
2012,06,25,10,02,14.70
2012,06,25,10,03,14.70
2012,06,25,10,04,14.70
2012,06,25,10,05,14.60
2012,06,25,10,06,14.60
2012,06,25,10,07,14.50
2012,06,25,10,08,14.50
2012,06,25,10,09,14.50
2012,06,25,10,10,14.60
2012,06,25,10,11,14.60
2012,06,25,10,12,14.60
2012,06,25,10,13,14.60
2012,06,25,10,14,14.70
2012,06,25,10,15,14.70
2012,06,25,10,16,14.80
2012,06,25,10,17,14.90
2012,06,25,10,18,15.00
2012,06,25,10,19,15.00
2012,06,25,10,20,15.00
2012,06,25,10,21,15.00
2012,06,25,10,22,15.00
2012,06,25,10,23,15.00
2012,06,25,10,24,15.00
2012,06,25,10,25,15.00
2012,06,25,10,26,15.00
2012,06,25,10,27,15.00
2012,06,25,10,28,15.00
2012,06,25,10,29,15.10
2012,06,25,10,30,15.20
2012,06,25,10,31,15.20
2012,06,25,10,32,15.20
2012,06,25,10,33,15.20
2012,06,25,10,34,15.20
2012,06,25,10,35,15.20
2012,06,25,10,36,15.20
2012,06,25,10,37,15.10
2012,06,25,10,38,15.10
2012,06,25,10,39,15.10
2012,06,25,10,40,15.10
2012,06,25,10,41,15.10
2012,06,25,10,42,15.20
2012,06,25,10,43,15.20
2012,06,25,10,44,15.30
2012,06,25,10,45,15.30
2012,06,25,10,46,15.40
2012,06,25,10,47,15.40
2012,06,25,10,48,15.40
2012,06,25,10,49,15.50
2012,06,25,10,50,15.60
2012,06,25,10,51,15.60
2012,06,25,10,52,15.60
2012,06,25,10,53,15.60
2012,06,25,10,54,15.60
2012,06,25,10,55,15.60
2012,06,25,10,56,15.60
2012,06,25,10,57,15.60
2012,06,25,10,58,15.60
2012,06,25,10,59,15.70
2012,06,25,11,00,15.70
2012,06,25,11,01,15.70
2012,06,25,11,02,15.70
2012,06,25,11,03,15.70
2012,06,25,11,04,15.70
2012,06,25,11,05,15.70
2012,06,25,11,06,15.80
2012,06,25,11,07,15.80
2012,06,25,11,08,15.90
2012,06,25,11,09,16.00
2012,06,25,11,10,16.00
2012,06,25,11,11,16.10
2012,06,25,11,12,16.20
2012,06,25,11,13,16.20
2012,06,25,11,14,16.30
2012,06,25,11,15,16.40
2012,06,25,11,16,16.50
2012,06,25,11,17,16.60
2012,06,25,11,18,16.60
2012,06,25,11,19,16.60
2012,06,25,11,20,16.60
2012,06,25,11,21,16.60
2012,06,25,11,22,16.60
2012,06,25,11,23,16.60
2012,06,25,11,24,16.60
2012,06,25,11,25,16.50
2012,06,25,11,26,16.40
2012,06,25,11,27,16.40
2012,06,25,11,28,16.40
2012,06,25,11,29,16.40
2012,06,25,11,30,16.40
2012,06,25,11,31,16.40
2012,06,25,11,32,16.50
2012,06,25,11,33,16.50
2012,06,25,11,34,16.50
2012,06,25,11,35,16.50
2012,06,25,11,36,16.50
2012,06,25,11,37,16.50
2012,06,25,11,38,16.50
2012,06,25,11,39,16.50
2012,06,25,11,40,16.50
2012,06,25,11,41,16.40
2012,06,25,11,42,16.40
2012,06,25,11,43,16.40
2012,06,25,11,44,16.40
2012,06,25,11,45,16.40
2012,06,25,11,46,16.40
2012,06,25,11,47,16.30
2012,06,25,11,48,16.30
2012,06,25,11,49,16.30
2012,06,25,11,50,16.30
2012,06,25,11,51,16.30
2012,06,25,11,52,16.30
2012,06,25,11,53,16.40
2012,06,25,11,54,16.40
2012,06,25,11,55,16.50
2012,06,25,11,56,16.50
2012,06,25,11,57,16.60
2012,06,25,11,58,16.60
2012,06,25,11,59,16.70
2012,06,25,12,00,16.80
2012,06,25,12,01,16.80
2012,06,25,12,02,16.80
2012,06,25,12,03,16.80
2012,06,25,12,04,16.80
2012,06,25,12,05,16.80
2012,06,25,12,06,16.90
2012,06,25,12,07,17.00
2012,06,25,12,08,17.00
2012,06,25,12,09,17.10
2012,06,25,12,10,17.10
2012,06,25,12,11,17.20
2012,06,25,12,12,17.30
2012,06,25,12,13,17.40
2012,06,25,12,14,17.50
2012,06,25,12,15,17.60
2012,06,25,12,16,17.70
2012,06,25,12,17,17.80
2012,06,25,12,18,17.90
2012,06,25,12,19,18.00
2012,06,25,12,20,18.10
2012,06,25,12,21,18.20
2012,06,25,12,22,18.30
2012,06,25,12,23,18.40
2012,06,25,12,24,18.50
2012,06,25,12,25,18.60
2012,06,25,12,26,18.70
2012,06,25,12,27,18.70
2012,06,25,12,28,18.60
2012,06,25,12,29,18.60
2012,06,25,12,30,18.50
2012,06,25,12,31,18.40
2012,06,25,12,32,18.40
2012,06,25,12,33,18.30
2012,06,25,12,34,18.30
2012,06,25,12,35,18.30
2012,06,25,12,36,18.20
2012,06,25,12,37,18.20
2012,06,25,12,38,18.10
2012,06,25,12,39,18.00
2012,06,25,12,40,18.00
2012,06,25,12,41,18.00
2012,06,25,12,42,18.00
2012,06,25,12,43,18.00
2012,06,25,12,44,18.00
2012,06,25,12,45,18.10
2012,06,25,12,46,18.20
2012,06,25,12,47,18.30
2012,06,25,12,48,18.40
2012,06,25,12,49,18.60
2012,06,25,12,50,18.70
2012,06,25,12,51,18.90
2012,06,25,12,52,19.00
2012,06,25,12,53,19.00
2012,06,25,12,54,19.00
2012,06,25,12,55,19.10
2012,06,25,12,56,19.00
2012,06,25,12,57,18.90
2012,06,25,12,58,18.90
2012,06,25,12,59,18.80
2012,06,25,13,00,18.70
2012,06,25,13,01,18.70
2012,06,25,13,02,18.60
2012,06,25,13,03,18.60
2012,06,25,13,04,18.60
2012,06,25,13,05,18.60
2012,06,25,13,06,18.50
2012,06,25,13,07,18.50
2012,06,25,13,08,18.50
2012,06,25,13,09,18.40
2012,06,25,13,10,18.40
2012,06,25,13,11,18.50
2012,06,25,13,12,18.50
2012,06,25,13,13,18.50
2012,06,25,13,14,18.60
2012,06,25,13,15,18.60
2012,06,25,13,16,18.70
2012,06,25,13,17,18.80
2012,06,25,13,18,18.80
2012,06,25,13,19,18.90
2012,06,25,13,20,19.00
2012,06,25,13,21,19.10
2012,06,25,13,22,19.10
2012,06,25,13,23,19.20
2012,06,25,13,24,19.40
2012,06,25,13,25,19.50
2012,06,25,13,26,19.50
2012,06,25,13,27,19.60
2012,06,25,13,28,19.60
2012,06,25,13,29,19.60
2012,06,25,13,30,19.60
2012,06,25,13,31,19.60
2012,06,25,13,32,19.60
2012,06,25,13,33,19.50
2012,06,25,13,34,19.50
2012,06,25,13,35,19.50
2012,06,25,13,36,19.50
2012,06,25,13,37,19.50
2012,06,25,13,38,19.60
2012,06,25,13,39,19.60
2012,06,25,13,40,19.60
2012,06,25,13,41,19.70
2012,06,25,13,42,19.70
2012,06,25,13,43,19.70
2012,06,25,13,44,19.70
2012,06,25,13,45,19.60
2012,06,25,13,46,19.60
2012,06,25,13,47,19.60
2012,06,25,13,48,19.60
2012,06,25,13,49,19.50
2012,06,25,13,50,19.40
2012,06,25,13,51,19.30
2012,06,25,13,52,19.20
2012,06,25,13,53,19.10
2012,06,25,13,54,19.10
2012,06,25,13,55,19.00
2012,06,25,13,56,19.00
2012,06,25,13,57,18.90
2012,06,25,13,58,18.80
2012,06,25,13,59,18.70
2012,06,25,14,00,18.60
2012,06,25,14,01,18.60
2012,06,25,14,02,18.50
2012,06,25,14,03,18.50
2012,06,25,14,04,18.50
2012,06,25,14,05,18.50
2012,06,25,14,06,18.50
2012,06,25,14,07,18.50
2012,06,25,14,08,18.40
2012,06,25,14,09,18.30
2012,06,25,14,10,18.30
2012,06,25,14,11,18.30
2012,06,25,14,12,18.30
2012,06,25,14,13,18.30
2012,06,25,14,14,18.40
2012,06,25,14,15,18.50
2012,06,25,14,16,18.60
2012,06,25,14,17,18.60
2012,06,25,14,18,18.70
2012,06,25,14,19,18.80
2012,06,25,14,20,18.80
2012,06,25,14,21,18.90
2012,06,25,14,22,18.90
2012,06,25,14,23,18.90
2012,06,25,14,24,18.90
2012,06,25,14,25,18.90
2012,06,25,14,26,18.90
2012,06,25,14,27,18.90
2012,06,25,14,28,18.80
2012,06,25,14,29,18.80
2012,06,25,14,30,18.80
2012,06,25,14,31,18.80
2012,06,25,14,32,18.80
2012,06,25,14,33,18.80
2012,06,25,14,34,18.80
2012,06,25,14,35,18.80
2012,06,25,14,36,18.80
2012,06,25,14,37,18.90
2012,06,25,14,38,18.90
2012,06,25,14,39,18.80
2012,06,25,14,40,18.80
2012,06,25,14,41,18.80
2012,06,25,14,42,18.80
2012,06,25,14,43,18.80
2012,06,25,14,44,18.70
2012,06,25,14,45,18.70
2012,06,25,14,46,18.60
2012,06,25,14,47,18.60
2012,06,25,14,48,18.60
2012,06,25,14,49,18.60
2012,06,25,14,50,18.60
2012,06,25,14,51,18.70
2012,06,25,14,52,18.80
2012,06,25,14,53,18.80
2012,06,25,14,54,18.90
2012,06,25,14,55,18.90
2012,06,25,14,56,18.90
2012,06,25,14,57,18.90
2012,06,25,14,58,18.90
2012,06,25,14,59,18.90
2012,06,25,15,00,18.90
2012,06,25,15,01,18.90
2012,06,25,15,02,18.90
2012,06,25,15,03,19.00
2012,06,25,15,04,19.00
2012,06,25,15,05,18.90
2012,06,25,15,06,18.90
2012,06,25,15,07,18.90
2012,06,25,15,08,18.90
2012,06,25,15,09,18.90
2012,06,25,15,10,19.00
2012,06,25,15,11,19.00
2012,06,25,15,12,18.90
2012,06,25,15,13,18.80
2012,06,25,15,14,18.60
2012,06,25,15,15,18.40
2012,06,25,15,16,18.20
2012,06,25,15,17,18.00
2012,06,25,15,18,17.80
2012,06,25,15,19,17.70
2012,06,25,15,20,17.50
2012,06,25,15,21,17.30
2012,06,25,15,22,17.30
2012,06,25,15,23,17.20
2012,06,25,15,24,17.20
2012,06,25,15,25,17.10
2012,06,25,15,26,17.10
2012,06,25,15,27,17.00
2012,06,25,15,28,17.00
2012,06,25,15,29,16.90
2012,06,25,15,30,16.80
2012,06,25,15,31,16.80
2012,06,25,15,32,16.70
2012,06,25,15,33,16.70
2012,06,25,15,34,16.70
2012,06,25,15,35,16.70
2012,06,25,15,36,16.70
2012,06,25,15,37,16.70
2012,06,25,15,38,16.70
2012,06,25,15,39,16.70
2012,06,25,15,40,16.70
2012,06,25,15,41,16.70
2012,06,25,15,42,16.70
2012,06,25,15,43,16.70
2012,06,25,15,44,16.70
2012,06,25,15,45,16.70
2012,06,25,15,46,16.70
2012,06,25,15,47,16.70
2012,06,25,15,48,16.60
2012,06,25,15,49,16.60
2012,06,25,15,50,16.60
2012,06,25,15,51,16.60
2012,06,25,15,52,16.60
2012,06,25,15,53,16.50
2012,06,25,15,54,16.50
2012,06,25,15,55,16.50
2012,06,25,15,56,16.60
2012,06,25,15,57,16.60
2012,06,25,15,58,16.60
2012,06,25,15,59,16.70
2012,06,25,16,00,16.70
2012,06,25,16,01,16.70
2012,06,25,16,02,16.80
2012,06,25,16,03,16.80
2012,06,25,16,04,16.80
2012,06,25,16,05,16.90
2012,06,25,16,06,16.90
2012,06,25,16,07,17.00
2012,06,25,16,08,17.00
2012,06,25,16,09,17.10
2012,06,25,16,10,17.10
2012,06,25,16,11,17.20
2012,06,25,16,12,17.20
2012,06,25,16,13,17.30
2012,06,25,16,14,17.40
2012,06,25,16,15,17.40
2012,06,25,16,16,17.40
2012,06,25,16,17,17.30
2012,06,25,16,18,17.30
2012,06,25,16,19,17.20
2012,06,25,16,20,17.20
2012,06,25,16,21,17.20
2012,06,25,16,22,17.20
2012,06,25,16,23,17.20
2012,06,25,16,24,17.20
2012,06,25,16,25,17.20
2012,06,25,16,26,17.20
2012,06,25,16,27,17.20
2012,06,25,16,28,17.20
2012,06,25,16,29,17.20
2012,06,25,16,30,17.30
2012,06,25,16,31,17.30
2012,06,25,16,32,17.40
2012,06,25,16,33,17.40
2012,06,25,16,34,17.40
2012,06,25,16,35,17.40
2012,06,25,16,36,17.40
2012,06,25,16,37,17.30
2012,06,25,16,38,17.40
2012,06,25,16,39,17.40
2012,06,25,16,40,17.40
2012,06,25,16,41,17.50
2012,06,25,16,42,17.50
2012,06,25,16,43,17.50
2012,06,25,16,44,17.60
2012,06,25,16,45,17.60
2012,06,25,16,46,17.60
2012,06,25,16,47,17.60
2012,06,25,16,48,17.60
2012,06,25,16,49,17.70
2012,06,25,16,50,17.70
2012,06,25,16,51,17.70
2012,06,25,16,52,17.80
2012,06,25,16,53,17.80
2012,06,25,16,54,17.90
2012,06,25,16,55,18.00
2012,06,25,16,56,18.00
2012,06,25,16,57,18.00
2012,06,25,16,58,18.00
2012,06,25,16,59,18.00
2012,06,25,17,00,18.00
2012,06,25,17,01,18.10
2012,06,25,17,02,18.10
2012,06,25,17,03,18.10
2012,06,25,17,04,18.10
2012,06,25,17,05,18.10
2012,06,25,17,06,18.10
2012,06,25,17,07,18.10
2012,06,25,17,08,18.10
2012,06,25,17,09,18.10
2012,06,25,17,10,18.10
2012,06,25,17,11,18.00
2012,06,25,17,12,18.00
2012,06,25,17,13,18.00
2012,06,25,17,14,18.00
2012,06,25,17,15,17.90
2012,06,25,17,16,17.90
2012,06,25,17,17,17.80
2012,06,25,17,18,17.80
2012,06,25,17,19,17.70